Philadelphia, PA

11:51 PM EDT on May 29, 2017 (GMT -0400)
Philadelphia International

Weather History for KPHL - October, 2012

Change the Weather History Date:

Sunday, October 14, 2012

  Actual Average Record
Temperature  
Mean Temperature 63 °F 58 °F  
Max Temperature 75 °F 67 °F 88 °F (1975)
Min Temperature 50 °F 49 °F 30 °F (1988)
Degree Days  
Heating Degree Days 2 8  
Month to date heating degree days 88 81  
Since 1 July heating degree days 102 119  
Cooling Degree Days 0 1  
Month to date cooling degree days 27 18  
Year to date cooling degree days 1599 1296  
Growing Degree Days 12 (Base 50)    
Moisture  
Dew Point 48 °F    
Average Humidity 55    
Maximum Humidity 77    
Minimum Humidity 33    
Precipitation  
Precipitation 0.00 in 0.11 in 1.66 in (1955)
Month to date precipitation 0.30 1.52  
Year to date precipitation 26.69 33.32  
Snow  
Snow 0.00 in 0.00 in 0.00 in ()
Month to date snowfall 0.0 0.0  
Since 1 July snowfall 0.0 0.0  
Since 1 September snowfall 0.0 0.0  
Snow Depth 0.00 in    
Sea Level Pressure  
Sea Level Pressure 30.14 in    
Wind  
Wind Speed 12 mph (SSW)    
Max Wind Speed 25 mph    
Max Gust Speed 32 mph    
Visibility 10 miles    
Events      
T = Trace of Precipitation, MM = Missing Value Source: NWS Daily Summary

Daily Weather History Graph

Daily Weather History Graph

Search for Another Location

Airport or City:

Trip Planner

Search our weather history database for the weather conditions in past years. The results will help you decide how hot, cold, wet, or windy it might be!

Date:

Astronomy

Oct. 14, 2012 Rise Set
Actual Time 7:10 AM EDT 6:22 PM EDT
Civil Twilight 6:43 AM EDT 6:49 PM EDT
Nautical Twilight 6:12 AM EDT 7:20 PM EDT
Astronomical Twilight 5:40 AM EDT 7:52 PM EDT
Moon 6:07 AM EDT (10/14) 5:40 PM EDT (10/14)
Length of Visible Light 12h 05m
Length of Day
11h 11m
Waning Crescent, 1% of the Moon is Illuminated
Oct 14
Waning Crescent
Oct 15
New
Oct 21
First Quarter
Oct 29
Full
Nov 6
Last Quarter

Hourly Weather History & Observations

Time (EDT) Temp. Dew Point Humidity Pressure Visibility Wind Dir Wind Speed Gust Speed Precip Events Conditions
12:54 AM 50.0 °F 41.0 °F 71% 30.30 in 10.0 mi South 6.9 mph - N/A   Mostly Cloudy
1:54 AM 51.1 °F 42.1 °F 71% 30.28 in 10.0 mi SSW 9.2 mph - N/A   Mostly Cloudy
2:54 AM 52.0 °F 44.1 °F 74% 30.27 in 10.0 mi SSW 6.9 mph - N/A   Overcast
3:54 AM 54.0 °F 45.0 °F 72% 30.25 in 10.0 mi SW 10.4 mph - N/A   Overcast
4:54 AM 52.0 °F 45.0 °F 77% 30.25 in 10.0 mi SW 4.6 mph - N/A   Overcast
5:54 AM 54.0 °F 46.9 °F 77% 30.23 in 10.0 mi SSW 8.1 mph - N/A   Mostly Cloudy
6:54 AM 55.0 °F 48.0 °F 77% 30.23 in 10.0 mi SSW 9.2 mph - N/A   Mostly Cloudy
7:54 AM 55.0 °F 48.0 °F 77% 30.23 in 10.0 mi SSW 12.7 mph - N/A   Scattered Clouds
8:54 AM 57.9 °F 48.9 °F 72% 30.24 in 10.0 mi SSW 10.4 mph - N/A   Scattered Clouds
9:54 AM 62.1 °F 50.0 °F 65% 30.23 in 10.0 mi SW 12.7 mph - N/A   Scattered Clouds
10:54 AM 64.0 °F 48.9 °F 58% 30.22 in 10.0 mi SW 17.3 mph 25.3 mph N/A   Scattered Clouds
11:54 AM 66.9 °F 48.9 °F 52% 30.19 in 10.0 mi SW 17.3 mph 25.3 mph N/A   Scattered Clouds
12:54 PM 71.1 °F 48.9 °F 45% 30.16 in 10.0 mi SW 13.8 mph 23.0 mph N/A   Scattered Clouds
1:54 PM 73.0 °F 46.0 °F 38% 30.12 in 10.0 mi SW 16.1 mph - N/A   Mostly Cloudy
2:54 PM 73.9 °F 43.0 °F 33% 30.07 in 10.0 mi SW 18.4 mph 31.1 mph N/A   Mostly Cloudy
3:54 PM 73.9 °F 44.1 °F 34% 30.05 in 10.0 mi SSW 15.0 mph 27.6 mph N/A   Mostly Cloudy
4:54 PM 73.9 °F 44.1 °F 34% 30.04 in 10.0 mi SSW 17.3 mph - N/A   Mostly Cloudy
5:54 PM 72.0 °F 46.9 °F 41% 30.03 in 10.0 mi SSW 11.5 mph - N/A   Mostly Cloudy
6:54 PM 69.1 °F 50.0 °F 51% 30.02 in 10.0 mi South 9.2 mph - N/A   Mostly Cloudy
7:54 PM 66.9 °F 52.0 °F 59% 30.02 in 10.0 mi South 10.4 mph - N/A   Scattered Clouds
8:54 PM 66.0 °F 53.1 °F 63% 30.01 in 10.0 mi South 11.5 mph - N/A   Scattered Clouds
9:54 PM 64.9 °F 54.0 °F 68% 30.00 in 10.0 mi South 10.4 mph - N/A   Partly Cloudy
10:54 PM 64.0 °F 55.0 °F 73% 29.98 in 10.0 mi South 10.4 mph - N/A   Partly Cloudy
11:54 PM 64.9 °F 55.9 °F 73% 29.96 in 10.0 mi South 13.8 mph - N/A   Scattered Clouds